This is the latest recevied weather packets stored in our database for station/object KG4GJX. If no packets are shown the sender has not sent any weather packets the latest 10 day(s).
| Time | Temp. | Humidity | Pressure | Rain* | Wind** | Luminosity | Snow |
|---|---|---|---|---|---|---|---|
| 1788562422 | 33.89° C | 59% | 1015.5 hPa | 0 mm | - | - | - |
| 1788561760 | 33.89° C | 60% | 1015.2 hPa | 0 mm | - | - | - |
| 1788561097 | 34.44° C | 58% | 1015.2 hPa | 0 mm | - | - | - |
| 1788560435 | 34.44° C | 58% | 1015.2 hPa | 0 mm | - | - | - |
| 1788559773 | 35.56° C | 55% | 1015.2 hPa | 0 mm | - | - | - |
| 1788559110 | 36.11° C | 53% | 1015.2 hPa | 0 mm | - | - | - |
| 1788558448 | 37.22° C | 50% | 1015.2 hPa | 0 mm | - | - | - |
| 1788557786 | 37.22° C | 48% | 1015.2 hPa | 0 mm | - | - | - |
| 1788557123 | 37.22° C | 45% | 1015.2 hPa | 0 mm | - | - | - |
| 1788556461 | 36.67° C | 46% | 1015.5 hPa | 0 mm | - | - | - |
| 1788555798 | 36.11° C | 49% | 1015.5 hPa | 0 mm | - | - | - |
| 1788555136 | 36.11° C | 47% | 1015.9 hPa | 0 mm | - | - | - |
| 1788554473 | 36.67° C | 46% | 1015.9 hPa | 0 mm | - | - | - |
| 1788553811 | 36.67° C | 46% | 1016.2 hPa | 0 mm | - | - | - |
| 1788553149 | 36.67° C | 47% | 1016.2 hPa | 0 mm | - | - | - |
| 1788552486 | 36.67° C | 48% | 1015.9 hPa | 0 mm | - | - | - |
| 1788551823 | 36.11° C | 48% | 1016.2 hPa | 0 mm | - | - | - |
| 1788551161 | 36.11° C | 50% | 1016.2 hPa | 0 mm | - | - | - |
| 1788550499 | 36.67° C | 46% | 1016.5 hPa | 0 mm | - | - | - |
| 1788549836 | 37.22° C | 45% | 1016.9 hPa | 0 mm | - | - | - |
| 1788549173 | 37.22° C | 47% | 1016.9 hPa | 0 mm | - | - | - |
| 1788548511 | 37.22° C | 49% | 1016.9 hPa | 0 mm | - | - | - |
| 1788547848 | 36.67° C | 49% | 1017.2 hPa | 0 mm | - | - | - |
| 1788547186 | 36.67° C | 48% | 1017.2 hPa | 0 mm | - | - | - |
| 1788546524 | 36.11° C | 51% | 1017.6 hPa | 0 mm | - | - | - |
* Rain latest hour (hover to see other rain measurements)
** Current wind speed in m/s (hover to see current wind gust speed)